FW5264 Chilmark MA US current weather conditions

sailwx.info

Wind from 247 at 2 knots

Air temperature 2.8° C
Dewpoint 1.0° C

Last reported at 2020-Jan-27 11:03 UTC.
Time now 2020-Jan-27 11:38 UTC

Location: N 41°23' W 070°41'.
View on Google Maps.

See reports from other nearby stations

  
Tides and Currents Weather Stations Pressure Air Temp Water Temp Dewpoint Dewpoint Depression Visibility Wind Speed Wind Dir Waves Ship Positions
date/time (UTC)wind fromknots sea level pressurealtimeterstation pressurevisibilityair tempwater tempwave heightnotes
2020-Jan-27 11:03 247 2 2.8
2020-Jan-27 10:54 244 0 2.8
2020-Jan-27 10:44 270 2 2.8
2020-Jan-27 10:34 251 0 2.8
2020-Jan-27 10:24 255 1 2.8
2020-Jan-27 10:15 247 1 2.8
2020-Jan-27 10:05 242 0 2.2
2020-Jan-27 09:56 225 1 2.2
2020-Jan-27 09:47 247 0 2.8
2020-Jan-27 09:38 254 1 2.8
2020-Jan-27 09:28 260 1 2.8
2020-Jan-27 09:18 274 0 2.8
2020-Jan-27 09:08 245 1 2.8
2020-Jan-27 08:59 250 1 2.8
2020-Jan-27 08:49 243 1 2.8
2020-Jan-27 08:40 239 1 2.8
2020-Jan-27 08:31 253 1 2.8
2020-Jan-27 08:21 267 0 2.8
2020-Jan-27 08:11 253 1 3.3
2020-Jan-27 08:01 269 2 3.3
2020-Jan-27 07:51 251 2 3.3
2020-Jan-27 07:42 238 1 3.3
2020-Jan-27 07:32 261 0 3.3
2020-Jan-27 07:23 246 2 3.3
2020-Jan-27 07:13 243 0 2.8
2020-Jan-27 07:03 264 2 2.8
2020-Jan-27 06:54 285 1 3.3
2020-Jan-27 06:44 274 1 3.3
2020-Jan-27 06:34 269 1 3.3
2020-Jan-27 06:24 284 0 3.3
2020-Jan-27 06:15 230 1 3.3
2020-Jan-27 06:05 271 0 3.3
2020-Jan-27 05:56 236 2 3.3
2020-Jan-27 05:46 239 1 3.3
2020-Jan-27 05:37 263 1 3.3
2020-Jan-27 05:28 259 2 3.3
2020-Jan-27 05:18 261 1 3.3
2020-Jan-27 05:08 256 1 3.3
2020-Jan-27 04:58 256 1 3.3
2020-Jan-27 04:48 258 2 3.3
2020-Jan-27 04:38 261 1 3.3
2020-Jan-27 04:28 241 1 3.9
2020-Jan-27 04:18 251 1 3.9
2020-Jan-27 04:09 247 1 3.9
2020-Jan-27 03:59 274 2 3.9
2020-Jan-27 03:50 244 1 3.9
2020-Jan-27 03:40 270 3 3.9
2020-Jan-27 03:30 256 1 3.9
2020-Jan-27 03:21 267 2 3.9
2020-Jan-27 03:12 245 1 3.9
2020-Jan-27 03:02 248 3 3.9
2020-Jan-27 02:52 264 2 3.9
2020-Jan-27 02:42 261 2 3.9
2020-Jan-27 02:33 257 2 3.9
2020-Jan-27 02:24 259 2 3.9
2020-Jan-27 02:14 240 4 3.9
2020-Jan-27 02:04 271 0 3.9
2020-Jan-27 01:54 279 2 3.9
2020-Jan-27 01:44 261 2 3.3
2020-Jan-27 01:34 265 1 3.3
2020-Jan-27 01:24 270 0 3.3
2020-Jan-27 01:14 274 0 3.3
2020-Jan-27 01:05 263 1 3.3
2020-Jan-27 00:55 278 0 3.9
2020-Jan-27 00:45 270 1 3.9
2020-Jan-27 00:36 255 1 4.4
2020-Jan-27 00:27 241 0 4.4
2020-Jan-27 00:17 260 2 4.4
2020-Jan-27 00:07 267 1 4.4
2020-Jan-26 23:58 253 2 4.4
2020-Jan-26 23:49 275 3 4.4
2020-Jan-26 23:39 279 6 4.4
2020-Jan-26 23:30 264 4 4.4
2020-Jan-26 23:21 280 2 4.4
2020-Jan-26 23:11 244 3 4.4
2020-Jan-26 23:01 238 1 4.4
2020-Jan-26 22:52 251 3 4.4
2020-Jan-26 22:42 268 2 4.4
2020-Jan-26 22:32 255 3 4.4
2020-Jan-26 22:22 241 2 4.4
2020-Jan-26 22:12 247 2 5.0
2020-Jan-26 22:03 251 3 5.0
2020-Jan-26 21:53 254 2 5.0
2020-Jan-26 21:44 252 4 5.0
2020-Jan-26 21:34 238 2 5.0
2020-Jan-26 21:24 237 0 5.6
2020-Jan-26 21:14 233 2 5.6
2020-Jan-26 21:04 243 3 5.6
2020-Jan-26 20:55 247 2 5.6
2020-Jan-26 20:45 235 0 6.1
2020-Jan-26 20:36 247 2 6.1
2020-Jan-26 20:27 242 3 6.7
2020-Jan-26 20:17 241 1 6.7
2020-Jan-26 20:07 252 3 7.2
2020-Jan-26 19:58 220 3 7.2
2020-Jan-26 19:48 269 1 6.7
2020-Jan-26 19:29 249 3 7.2
2020-Jan-26 19:19 240 4 6.7
2020-Jan-26 19:09 237 3 6.7
2020-Jan-26 19:00 248 4 6.7
2020-Jan-26 18:51 250 1 6.7
2020-Jan-26 18:42 260 3 6.7
2020-Jan-26 18:32 244 5 6.7
2020-Jan-26 18:22 263 3 7.2
2020-Jan-26 18:12 235 2 7.2
2020-Jan-26 18:03 244 3 7.2
2020-Jan-26 17:53 256 4 7.2
2020-Jan-26 17:44 237 2 7.2
2020-Jan-26 17:34 243 3 7.2
2020-Jan-26 17:24 261 3 7.2
2020-Jan-26 17:14 266 5 7.2
2020-Jan-26 17:05 247 2 6.7
2020-Jan-26 16:55 244 2 6.1
2020-Jan-26 16:46 268 2 6.1
2020-Jan-26 16:37 252 2 6.1
2020-Jan-26 16:27 256 1 5.6
2020-Jan-26 16:18 262 6 5.6
2020-Jan-26 16:08 278 4 5.6
2020-Jan-26 15:59 253 2 5.6
2020-Jan-26 15:50 260 4 5.6
2020-Jan-26 15:40 259 3 5.6
2020-Jan-26 15:30 270 5 5.0
2020-Jan-26 15:20 248 1 5.0
2020-Jan-26 15:10 256 5 5.0
2020-Jan-26 15:01 268 5 5.0
2020-Jan-26 14:51 233 1 5.0
2020-Jan-26 14:41 253 2 4.4
2020-Jan-26 14:32 264 1 4.4
2020-Jan-26 14:23 294 0 4.4
2020-Jan-26 14:14 276 2 4.4
2020-Jan-26 14:04 261 4 4.4
2020-Jan-26 13:54 262 0 4.4
2020-Jan-26 13:45 269 5.0
2020-Jan-26 13:36 243 0 5.0
2020-Jan-26 13:26 251 2 5.0
2020-Jan-26 13:16 256 3 5.0
2020-Jan-26 13:07 236 2 5.0
2020-Jan-26 12:57 276 2 5.0
2020-Jan-26 12:47 255 1 5.0
2020-Jan-26 12:38 267 2 5.0
2020-Jan-26 12:28 268 3 5.0
2020-Jan-26 12:19 267 4 5.0
2020-Jan-26 12:10 231 0 5.0
2020-Jan-26 12:00 267 2 5.0
2020-Jan-26 11:50 244 2 5.0
2020-Jan-26 11:41 249 2 5.0
2020-Jan-26 11:31 267 2 5.0
2020-Jan-26 11:21 273 3 5.0
2020-Jan-26 11:12 246 3 5.0
2020-Jan-26 11:02 268 3 5.6
2020-Jan-26 10:53 263 2 5.6
2020-Jan-26 10:44 246 2 5.6
2020-Jan-26 10:34 263 2 5.6
2020-Jan-26 10:25 222 0 5.6
2020-Jan-26 10:15 239 1 5.6
2020-Jan-26 10:06 220 0 5.6
2020-Jan-26 09:56 230 1 5.6
2020-Jan-26 09:46 240 1 5.6
2020-Jan-26 09:36 232 1 5.6
2020-Jan-26 09:27 240 1 5.6
2020-Jan-26 09:17 241 2 5.6
2020-Jan-26 09:08 232 2 5.6
2020-Jan-26 08:49 262 1 6.1
2020-Jan-26 08:40 202 6.1
2020-Jan-26 08:31 248 3 6.1
2020-Jan-26 08:21 280 1 6.1
2020-Jan-26 08:11 267 1 6.7
2020-Jan-26 08:01 237 2 6.7
2020-Jan-26 07:51 243 6.7
2020-Jan-26 07:41 269 2 6.7
2020-Jan-26 07:32 240 0 6.1
2020-Jan-26 07:22 240 2 6.1
2020-Jan-26 07:13 235 1 6.1
2020-Jan-26 07:03 246 1 6.7
2020-Jan-26 06:53 237 0 6.7
2020-Jan-26 06:43 237 2 6.7
2020-Jan-26 06:34 266 1 6.7
2020-Jan-26 06:24 226 1 6.7
2020-Jan-26 06:14 233 1 6.7
2020-Jan-26 06:05 256 1 6.7
2020-Jan-26 05:56 232 1 7.2
2020-Jan-26 05:46 263 0 7.2
2020-Jan-26 05:37 272 3 7.8
2020-Jan-26 05:27 225 1 8.3
2020-Jan-26 05:18 241 1 8.3
2020-Jan-26 05:08 255 0 8.3
2020-Jan-26 04:59 229 1 8.9
2020-Jan-26 04:50 248 0 8.9
2020-Jan-26 04:41 244 0 9.4
2020-Jan-26 04:31 230 2 9.4
2020-Jan-26 04:21 236 1 9.4
2020-Jan-26 04:12 210 2 10.0
2020-Jan-26 04:02 205 0 10.0
2020-Jan-26 03:52 213 2 9.4
2020-Jan-26 03:43 220 3 9.4
2020-Jan-26 03:33 202 3 8.9
2020-Jan-26 03:24 167 6 8.9
2020-Jan-26 03:14 214 2 8.9
2020-Jan-26 03:05 183 3 8.3
2020-Jan-26 02:55 145 6 8.3
2020-Jan-26 02:46 170 9 7.8
2020-Jan-26 02:36 149 6 7.8
2020-Jan-26 02:26 150 4 7.8
2020-Jan-26 02:17 146 6 7.2
2020-Jan-26 02:07 131 5 7.2
2020-Jan-26 01:58 140 6 7.2
2020-Jan-26 01:48 143 5 7.2
2020-Jan-26 01:38 153 3 7.8
2020-Jan-26 01:28 122 5 7.8
2020-Jan-26 01:18 124 4 7.8
2020-Jan-26 01:09 129 5 7.8
2020-Jan-26 00:59 134 2 7.2
2020-Jan-26 00:50 122 6 7.2
2020-Jan-26 00:40 129 6 7.8
2020-Jan-26 00:31 138 6 7.2
2020-Jan-26 00:22 141 6 7.2
2020-Jan-26 00:13 135 4 7.2
2020-Jan-26 00:03 121 6 7.2
2020-Jan-25 23:53 128 5 7.2
2020-Jan-25 23:44 103 6 7.2
2020-Jan-25 23:34 094 5 7.2
2020-Jan-25 23:25 110 5 7.2
2020-Jan-25 23:15 127 5 7.8
2020-Jan-25 23:06 087 5 7.8
2020-Jan-25 22:56 098 5 7.8
2020-Jan-25 22:46 105 4 7.8
2020-Jan-25 22:36 086 6 7.8
2020-Jan-25 22:27 088 4 7.8
2020-Jan-25 22:17 086 2 7.2
2020-Jan-25 22:08 090 5 7.2
2020-Jan-25 21:59 107 1 7.2
2020-Jan-25 21:50 092 4 7.2
2020-Jan-25 21:40 093 6 7.2
2020-Jan-25 21:31 092 3 7.2
2020-Jan-25 21:21 119 3 7.2
2020-Jan-25 21:11 091 3 7.2
2020-Jan-25 21:01 090 2 6.7
2020-Jan-25 20:52 095 3 6.7
2020-Jan-25 20:42 088 2 6.7
2020-Jan-25 20:33 079 1 6.7
2020-Jan-25 20:23 101 4 6.7
2020-Jan-25 20:13 070 3 6.7
2020-Jan-25 20:04 096 1 6.7
2020-Jan-25 19:54 082 2 6.7
2020-Jan-25 19:44 084 6 6.7
2020-Jan-25 19:34 087 3 7.2
2020-Jan-25 19:24 097 2 6.7
2020-Jan-25 19:14 093 3 6.7
2020-Jan-25 19:05 038 1 6.7
2020-Jan-25 18:55 075 5 6.7
2020-Jan-25 18:45 066 4 6.7
2020-Jan-25 18:36 084 3 6.7
2020-Jan-25 18:27 074 2 6.7
2020-Jan-25 18:18 075 5 6.7
2020-Jan-25 18:09 096 2 6.7
2020-Jan-25 17:59 102 4 6.7
2020-Jan-25 17:49 085 2 6.7
2020-Jan-25 17:39 080 4 6.7
2020-Jan-25 17:30 086 4 6.7
2020-Jan-25 17:20 099 2 6.7
2020-Jan-25 17:10 113 3 6.7
2020-Jan-25 17:00 079 5 7.2
2020-Jan-25 16:51 080 2 7.2
2020-Jan-25 16:41 071 3 7.2
2020-Jan-25 16:31 096 1 7.2
2020-Jan-25 16:22 071 6 7.2
2020-Jan-25 16:13 083 4 7.2
2020-Jan-25 16:03 104 6 6.7
2020-Jan-25 15:53 083 6 6.7
2020-Jan-25 15:44 076 5 6.1
2020-Jan-25 15:34 078 2 6.1
2020-Jan-25 15:24 078 3 6.7
2020-Jan-25 15:14 090 3 6.1
2020-Jan-25 15:04 089 6 6.1
2020-Jan-25 14:54 094 6 5.6
2020-Jan-25 14:44 083 6 6.1
2020-Jan-25 14:34 073 4 5.6
2020-Jan-25 14:24 100 5 5.6
2020-Jan-25 14:15 069 4 5.6
2020-Jan-25 14:05 092 4 5.6
2020-Jan-25 13:56 077 4 5.6
2020-Jan-25 13:46 089 6 5.6
2020-Jan-25 13:37 069 2 5.6
2020-Jan-25 13:27 080 3 5.0
2020-Jan-25 13:17 094 4 5.0
2020-Jan-25 13:08 093 5 5.0
2020-Jan-25 12:58 093 6 5.0
2020-Jan-25 12:48 087 5 4.4
2020-Jan-25 12:38 087 2 4.4
2020-Jan-25 12:28 075 5 4.4
2020-Jan-25 12:19 085 5 4.4
2020-Jan-25 12:10 088 6 4.4
2020-Jan-25 12:00 080 2 4.4
2020-Jan-25 11:51 088 2 4.4
2020-Jan-25 11:41 068 3 3.9